Location: Tel Aviv
(32.0670°N, 34.7670°E)
Time: 02:40:21
(UTC+03:00)

Tiros 1 - Pass Details

Date: 20 January 2022
Orbit: 629 x 663 km, 48.4° (Epoch: 26 May)

Event Time Altitude Azimuth Distance (km) Brightness Sun altitude
Rises 03:43:24 0° 313° (NW) 2,977 - -37.3°
Reaches altitude 10° 03:47:41 10° 350° (N) 2,055 - -36.4°
Maximum altitude 03:48:59 11° 6° (N) 1,986 - -36.1°
Drops below altitude 10° 03:50:17 10° 22° (NNE) 2,049 - -35.8°
Exits shadow 03:51:28 - 35° (NE) 2,211 10.2 -35.6°
Sets 03:54:32 0° 59° (ENE) 2,947 11.2 -34.9°
